Location: Washington
(38.8950°N, 77.0370°W)
Time: 07:16:04
(UTC-04:00)

Amateur Radio Satellites - All Passes

Search period start: 01 September 2014 06:46
Search period end: 02 September 2014 06:46
Location: Washington, 38.8950°N, 77.0370°W

Satellite Date Start Highest point End Downlink Frequencies (MHz)
Time Altitude Azimuth
Saudisat 1A 01 Sep 06:59:29 07:03:29 33° 51° (NE) 07:07:28 436.775 MHz
KITSAT 1 01 Sep 07:05:00 07:11:05 23° 39° (NE) 07:17:07 435.175 FM
JAS-2 01 Sep 07:23:41 07:28:59 83° 285° (WNW) 07:34:45 435.800 - 435.900 CW/SSB, 435.910 FM
SO-67 01 Sep 07:36:36 07:39:20 22° 95° (E) 07:42:03 435.3500 MHz FM
Hamsat 01 Sep 07:44:51 07:48:49 35° 289° (WNW) 07:52:43 145.90 MHz
RS-15 01 Sep 07:59:08 08:10:13 77° 117° (ESE) 08:21:07 29.354 - 29.394 USB, Beacon 29.352 USB
STRAND 1 01 Sep 08:17:18 08:21:03 20° 266° (W) 08:24:48 ?
AO-7 01 Sep 08:30:29 08:32:01 11° 316° (NW) 08:33:34 29.400 - 29.500 MHz
HO-68 01 Sep 08:35:56 08:38:26 12° 89° (E) 08:40:56 435.675 MHz FM
Saudisat 1A 01 Sep 08:39:19 08:42:55 25° 248° (WSW) 08:46:29 436.775 MHz
KITSAT 1 01 Sep 08:59:32 09:07:40 86° 61° (ENE) 09:15:44 435.175 FM
ISS 01 Sep 09:01:31 09:02:48 12° 128° (SE) 09:04:05 145.800 FM
SO-67 01 Sep 09:09:46 09:12:14 19° 290° (WNW) 09:14:41 435.3500 MHz FM
UKube-1 01 Sep 09:39:15 09:42:01 16° 94° (E) 09:44:46 145.840 MHz, 145.915 MHz
Oscar 11 01 Sep 09:44:32 09:46:18 12° 91° (E) 09:48:03 145.825 FM, Beacon 2401.500 USB
RS-15 01 Sep 10:14:02 10:23:39 34° 321° (NW) 10:33:17 29.354 - 29.394 USB, Beacon 29.352 USB
FUNcube-1 01 Sep 10:15:09 10:16:20 11° 90° (E) 10:17:31 145.950 - 145.970 MHz USB
HO-68 01 Sep 10:19:55 10:27:07 80° 105° (ESE) 10:34:17 435.675 MHz FM
ISS 01 Sep 10:35:49 10:39:07 67° 323° (NW) 10:42:26 145.800 FM
KITSAT 1 01 Sep 10:57:01 11:02:00 18° 259° (WSW) 11:06:59 435.175 FM
UKube-1 01 Sep 11:14:18 11:18:22 40° 289° (WNW) 11:22:25 145.840 MHz, 145.915 MHz
Oscar 11 01 Sep 11:18:31 11:22:48 54° 286° (WNW) 11:27:02 145.825 FM, Beacon 2401.500 USB
SO-50 01 Sep 11:29:20 11:32:53 20° 45° (NE) 11:36:27 436.795 FM
AO-40 01 Sep 11:36:18 06:45:34 24° 238° (WSW) 11:55:40 Beacon 2401.320
FUNcube-1 01 Sep 11:48:35 11:53:06 67° 285° (WNW) 11:57:40 145.950 - 145.970 MHz USB
PANSAT 01 Sep 11:56:28 11:58:41 15° 170° (S) 12:00:53 not established
HO-68 01 Sep 12:09:11 12:13:59 20° 303° (WNW) 12:18:48 435.675 MHz FM
JAS-1B 01 Sep 12:11:52 12:13:43 11° 50° (NE) 12:15:32 435.800 - 435.900 CW/SSB
ISS 01 Sep 12:14:24 12:16:22 15° 341° (NNW) 12:18:20 145.800 FM
RS-15 01 Sep 12:34:31 12:40:55 17° 356° (N) 12:47:23 29.354 - 29.394 USB, Beacon 29.352 USB
Oscar 19 01 Sep 12:48:57 12:52:44 21° 65° (ENE) 12:56:31 437.125 CW, 437.150 USB
AO-Echo 01 Sep 13:04:24 13:06:36 13° 63° (ENE) 13:08:46 ?
SO-50 01 Sep 13:09:04 13:13:46 56° 243° (WSW) 13:18:31 436.795 FM
MaSat-1 01 Sep 13:13:20 13:18:12 79° 113° (ESE) 13:23:22 437.345 MHz
UOSAT-12 01 Sep 13:19:35 13:23:04 20° 45° (NE) 13:26:31 437.025 FM, 437.400 FM
Oscar 16 01 Sep 13:22:49 13:27:41 45° 71° (ENE) 13:32:36 437.025 USB, Beacon 2401.1428
ITAMSAT 1 01 Sep 13:25:23 13:29:06 20° 64° (ENE) 13:32:49 435.822 SSB
Uribyol 2 01 Sep 13:34:18 13:38:30 26° 66° (ENE) 13:42:43 436.500 FM
PANSAT 01 Sep 13:35:39 13:38:13 17° 183° (S) 13:40:47 not established
TMSAT-1 01 Sep 13:47:15 13:47:48 10° 59° (ENE) 13:48:22 436.925 FM
JAS-1B 01 Sep 13:53:14 14:02:30 51° 68° (ENE) 14:10:48 435.800 - 435.900 CW/SSB
AO-27 01 Sep 13:53:40 13:58:24 38° 69° (ENE) 14:03:09 436.795 MHz FM
Oscar 19 01 Sep 14:26:46 14:31:43 46° 261° (W) 14:36:43 437.125 CW, 437.150 USB
Gurwin Techsat 1B 01 Sep 14:31:44 14:36:35 38° 70° (ENE) 14:41:28 435.225 FM
AO-Echo 01 Sep 14:39:46 14:44:48 72° 258° (WSW) 14:49:41 ?
Oscar 10/S400 01 Sep 14:42:48 14:53:33 14° 151° (SSE) 15:02:13 145.825 - 145.975 CW/USB, Beacon 145.810 USB
RS-15 01 Sep 14:49:52 14:58:50 27° 32° (NNE) 15:07:57 29.354 - 29.394 USB, Beacon 29.352 USB
MaSat-1 01 Sep 14:52:56 14:55:52 15° 311° (NW) 14:58:52 437.345 MHz
UOSAT-12 01 Sep 14:58:57 15:03:33 54° 243° (WSW) 15:08:04 437.025 FM, 437.400 FM
ITAMSAT 1 01 Sep 15:03:16 15:08:13 47° 260° (W) 15:13:13 435.822 SSB
Oscar 16 01 Sep 15:03:26 15:07:13 21° 267° (W) 15:11:02 437.025 USB, Beacon 2401.1428
Uribyol 2 01 Sep 15:13:05 15:17:47 36° 262° (W) 15:22:32 436.500 FM
PANSAT 01 Sep 15:16:51 15:17:42 11° 196° (SSW) 15:18:33 not established
TMSAT-1 01 Sep 15:21:34 15:26:51 82° 75° (ENE) 15:32:10 436.925 FM
ISS 01 Sep 15:29:46 15:32:07 18° 22° (NNE) 15:34:27 145.800 FM
Uosat F 01 Sep 15:33:24 15:37:00 20° 65° (ENE) 15:40:35 435.120 FM
AO-27 01 Sep 15:33:50 15:37:59 24° 265° (W) 15:42:10 436.795 MHz FM
AO-7 01 Sep 15:38:25 15:46:05 43° 63° (ENE) 15:53:44 29.400 - 29.500 MHz
Sapphire 01 Sep 15:38:36 15:41:25 14° 103° (ESE) 15:44:15 437.095 MHz 1200 baud AX-25 AFSK
JAS-1B 01 Sep 15:43:57 15:52:57 41° 263° (W) 16:01:13 435.800 - 435.900 CW/SSB
PCSat 01 Sep 16:05:47 16:10:22 29° 108° (ESE) 16:14:59 145.825 MHz
Gurwin Techsat 1B 01 Sep 16:12:19 16:16:37 25° 265° (W) 16:20:57 435.225 FM
RS-15 01 Sep 17:01:59 17:13:09 81° 58° (ENE) 17:24:45 29.354 - 29.394 USB, Beacon 29.352 USB
OPAL 01 Sep 17:01:59 17:06:31 29° 98° (E) 17:11:00 ?
Hamsat 01 Sep 17:03:17 17:05:08 13° 64° (ENE) 17:06:59 145.90 MHz
ISS 01 Sep 17:05:52 17:09:12 81° 220° (SW) 17:12:31 145.800 FM
TMSAT-1 01 Sep 17:06:03 17:07:21 11° 271° (W) 17:08:40 436.925 FM
Uosat F 01 Sep 17:10:39 17:15:26 45° 260° (W) 17:20:15 435.120 FM
Sapphire 01 Sep 17:18:48 17:24:11 70° 299° (WNW) 17:29:36 437.095 MHz 1200 baud AX-25 AFSK
AO-7 01 Sep 17:31:00 17:38:46 43° 260° (W) 17:46:35 29.400 - 29.500 MHz
JAS-2 01 Sep 17:35:06 17:40:31 35° 70° (ENE) 17:45:27 435.800 - 435.900 CW/SSB, 435.910 FM
PCSat 01 Sep 17:48:37 17:53:37 37° 305° (NW) 17:58:40 145.825 MHz
Hamsat 01 Sep 18:36:19 18:40:34 58° 260° (W) 18:44:52 145.90 MHz
OPAL 01 Sep 18:40:43 18:45:21 33° 294° (WNW) 18:49:57 ?
STRAND 1 01 Sep 18:49:56 18:53:02 16° 92° (E) 18:56:07 ?
Sapphire 01 Sep 19:06:35 19:08:37 12° 319° (NW) 19:10:40 437.095 MHz 1200 baud AX-25 AFSK
RS-15 01 Sep 19:15:54 19:24:18 26° 257° (WSW) 19:32:59 29.354 - 29.394 USB, Beacon 29.352 USB
JAS-2 01 Sep 19:20:18 19:25:36 30° 263° (W) 19:30:28 435.800 - 435.900 CW/SSB, 435.910 FM
SO-67 01 Sep 19:40:26 19:43:53 69° 259° (W) 19:47:21 435.3500 MHz FM
STRAND 1 01 Sep 20:27:33 20:32:32 55° 288° (WNW) 20:37:31 ?
UKube-1 01 Sep 20:34:40 20:36:47 14° 64° (ENE) 20:38:53 145.840 MHz, 145.915 MHz
HO-68 01 Sep 20:46:51 20:53:43 53° 68° (ENE) 21:00:36 435.675 MHz FM
Saudisat 1A 01 Sep 21:08:21 21:09:06 10° 107° (ESE) 21:09:52 436.775 MHz
MaSat-1 01 Sep 21:33:51 21:36:17 14° 48° (NE) 21:38:33 437.345 MHz
KITSAT 1 01 Sep 21:37:04 21:39:48 12° 98° (E) 21:42:32 435.175 FM
UKube-1 01 Sep 22:08:16 22:12:30 54° 259° (W) 22:16:46 145.840 MHz, 145.915 MHz
Oscar 11 01 Sep 22:11:56 22:16:16 83° 258° (WSW) 22:20:39 145.825 FM, Beacon 2401.500 USB
HO-68 01 Sep 22:35:47 22:41:40 28° 265° (W) 22:47:37 435.675 MHz FM
Saudisat 1A 01 Sep 22:43:40 22:48:03 73° 303° (WNW) 22:52:29 436.775 MHz
FUNcube-1 01 Sep 22:43:47 22:47:57 84° 77° (ENE) 22:52:15 145.950 - 145.970 MHz USB
MaSat-1 01 Sep 23:09:28 23:13:51 59° 250° (WSW) 23:17:35 437.345 MHz
KITSAT 1 01 Sep 23:25:45 23:33:47 73° 115° (ESE) 23:41:51 435.175 FM
Sapphire 02 Sep 00:26:53 00:29:02 12° 41° (NE) 00:31:10 437.095 MHz 1200 baud AX-25 AFSK
Saudisat 1A 02 Sep 00:27:40 00:28:26 10° 321° (NW) 00:29:11 436.775 MHz
PCSat 02 Sep 00:54:48 00:58:51 21° 48° (NE) 01:02:52 145.825 MHz
KITSAT 1 02 Sep 01:23:10 01:29:55 28° 316° (NW) 01:36:41 435.175 FM
Oscar 16 02 Sep 01:36:50 01:40:15 17° 92° (E) 01:43:38 437.025 USB, Beacon 2401.1428
Sapphire 02 Sep 02:08:01 02:13:27 71° 61° (ENE) 02:18:51 437.095 MHz 1200 baud AX-25 AFSK
AO-27 02 Sep 02:09:18 02:12:06 15° 91° (E) 02:14:54 436.795 MHz FM
PCSat 02 Sep 02:37:20 02:42:41 60° 246° (WSW) 02:47:59 145.825 MHz
Oscar 19 02 Sep 02:39:23 02:44:35 70° 102° (ESE) 02:49:44 437.125 CW, 437.150 USB
AO-Echo 02 Sep 02:48:25 02:52:48 38° 98° (E) 02:57:12 ?
Gurwin Techsat 1B 02 Sep 02:50:13 02:53:33 17° 92° (E) 02:56:51 435.225 FM
Oscar 16 02 Sep 03:14:50 03:19:53 53° 288° (WNW) 03:24:54 437.025 USB, Beacon 2401.1428
ITAMSAT 1 02 Sep 03:17:07 03:22:18 68° 102° (ESE) 03:27:27 435.822 SSB
SO-50 02 Sep 03:22:44 03:27:08 65° 118° (ESE) 03:31:39 436.795 FM
Uribyol 2 02 Sep 03:26:26 03:31:40 88° 104° (ESE) 03:36:53 436.500 FM
JAS-1B 02 Sep 03:32:21 03:38:56 77° 103° (ESE) 03:44:42 435.800 - 435.900 CW/SSB
TMSAT-1 02 Sep 03:39:00 03:43:51 36° 97° (E) 03:48:41 436.925 FM
AO-7 02 Sep 03:44:50 03:47:24 12° 88° (E) 03:49:57 29.400 - 29.500 MHz
AO-27 02 Sep 03:46:53 03:52:01 62° 287° (WNW) 03:57:07 436.795 MHz FM
Sapphire 02 Sep 03:53:25 03:56:12 14° 257° (WSW) 03:58:59 437.095 MHz 1200 baud AX-25 AFSK
OPAL 02 Sep 04:15:34 04:20:22 45° 69° (ENE) 04:25:16 ?
Oscar 19 02 Sep 04:20:33 04:23:18 15° 298° (WNW) 04:26:03 437.125 CW, 437.150 USB
AO-Echo 02 Sep 04:27:52 04:31:19 21° 294° (WNW) 04:34:47 ?
Gurwin Techsat 1B 02 Sep 04:28:39 04:33:51 57° 287° (WNW) 04:39:01 435.225 FM
ITAMSAT 1 02 Sep 04:58:22 05:01:12 15° 298° (WNW) 05:04:01 435.822 SSB
SO-50 02 Sep 05:05:18 05:08:09 16° 317° (NW) 05:11:03 436.795 FM
UOSAT-12 02 Sep 05:08:35 05:13:06 61° 118° (ESE) 05:17:44 437.025 FM, 437.400 FM
Uribyol 2 02 Sep 05:08:44 05:10:22 11° 300° (WNW) 05:12:00 436.500 FM
TMSAT-1 02 Sep 05:19:12 05:23:36 27° 293° (WNW) 05:27:59 436.925 FM
Uosat F 02 Sep 05:19:20 05:24:17 60° 101° (ESE) 05:29:13 435.120 FM
JAS-1B 02 Sep 05:24:55 05:28:33 16° 305° (NW) 05:31:56 435.800 - 435.900 CW/SSB
AO-7 02 Sep 05:33:09 05:41:28 73° 106° (ESE) 05:49:42 29.400 - 29.500 MHz
OPAL 02 Sep 05:55:46 05:59:27 20° 265° (W) 06:03:11 ?
STRAND 1 02 Sep 06:04:39 06:08:28 22° 65° (ENE) 06:12:16 ?
Hamsat 02 Sep 06:23:46 06:27:28 27° 95° (E) 06:31:06 145.90 MHz
JAS-2 02 Sep 06:29:05 06:33:52 32° 98° (E) 06:39:00 435.800 - 435.900 CW/SSB, 435.910 FM
